Location: Carri�res
(48.9069°N, 2.1792°E)
Time: 13:47:16
(UTC+00:00)

Cosmos 1674 - Pass Details

Date: 17 January 2021
Orbit: 492 x 518 km, 82.5° (Epoch: 25 February)

Event Time Altitude Azimuth Distance (km) Brightness Sun altitude
Rises 17:04:55 0° 186° (S) 2,623 6.7 -6.6°
Reaches altitude 10° 17:07:02 10° 186° (S) 1,743 5.8 -6.9°
Maximum altitude 17:10:51 84° 99° (E) 529 2.7 -7.5°
Drops below altitude 10° 17:14:44 10° 11° (N) 1,763 5.1 -8.1°
Sets 17:16:53 0° 11° (N) 2,656 6.0 -8.4°
